Date String (YYYY-MM-DD hh:mm:ss) UTC,Instrument flags,absolute air pressure of the measurement (hPa),sample flow rate (lpm),inlet stack bypass flow (lpm),air temperature of the measurement (°C),ambient temperature measured by the external sensor (°C),aerosol sample conditioner tube jacket temperature (°C),OPC LED temperature (°C),internal box temperature (°C),relative humidity of the measurement (%),span deviation,mass concentration of particles derived from Lorenz-Mie calculation of OPC scattering (μg/m³),mass concentration of particles derived from Lorenz-Mie calculation of OPC scattering (μg/m³),mass concentration of particles derived from Lorenz-Mie calculation of OPC scattering (μg/m³)
DateTimeUTC,F1_M11,P_M11,Q1_M11,Q2_M11,T1_M11,T2_M11,T3_M11,T4_M11,T5_M11,U1_M11,ZSPAN_M11,X0_M11,X2_M11,X1_M11
2024-01-13 12:00:00,SystemResetWarning,0821.0,5.01,000.00,019.0,018.6,000.0,027.4,020.0,4.0,0000.0,0004.12,0003.18,0002.87
2024-01-13 12:01:00,SystemResetWarning,0821.0,5.00,000.00,019.0,018.3,000.0,027.4,020.0,4.0,0000.0,0004.27,0003.18,0002.87
2024-01-13 12:02:00,SystemResetWarning,0821.0,5.00,000.00,018.9,018.0,000.0,027.4,020.0,4.0,0000.0,0004.20,0003.16,0002.87
2024-01-13 12:03:00,SystemResetWarning,0820.8,5.01,000.00,018.9,017.8,000.0,027.4,020.1,4.0,0000.0,0004.09,0003.13,0002.86
2024-01-13 12:04:00,SystemResetWarning,0820.8,5.01,000.00,019.0,018.2,000.0,027.4,020.5,4.0,0000.0,0004.02,0003.11,0002.84
2024-01-13 12:05:00,SystemResetWarning,0820.7,4.99,000.00,019.1,018.8,000.0,027.4,020.8,4.0,0000.0,0003.99,0003.11,0002.83
2024-01-13 12:06:00,SystemResetWarning,0821.1,5.00,000.00,019.2,019.2,000.0,027.4,020.8,3.9,0000.0,0004.02,0003.12,0002.82
2024-01-13 12:07:00,SystemResetWarning,0821.0,5.00,000.00,019.1,019.0,000.0,027.4,020.2,3.9,0000.0,0004.01,0003.11,0002.82
2024-01-13 12:08:00,SystemResetWarning,0821.0,5.00,000.00,019.0,018.6,000.0,027.4,020.0,3.9,0000.0,0003.99,0003.10,0002.80
2024-01-13 12:09:00,SystemResetWarning,0820.9,5.00,000.00,019.0,018.2,000.0,027.4,020.0,3.9,0000.0,0004.06,0003.11,0002.81
2024-01-13 12:10:00,SystemResetWarning,0821.0,5.00,000.00,019.0,017.9,000.0,027.4,020.0,3.9,0000.0,0004.17,0003.14,0002.83
2024-01-13 12:11:00,SystemResetWarning,0820.9,5.01,000.00,019.0,017.9,000.0,027.4,020.3,3.9,0000.0,0004.26,0003.13,0002.82
2024-01-13 12:12:00,SystemResetWarning,0820.9,5.01,000.00,019.1,018.5,000.0,027.4,020.7,3.9,0000.0,0004.11,0003.13,0002.80
2024-01-13 12:13:00,SystemResetWarning,0821.2,4.99,000.00,019.2,019.1,000.0,027.4,021.0,3.8,0000.0,0004.08,0003.12,0002.79
2024-01-13 12:14:00,SystemResetWarning,0821.3,4.99,000.00,019.2,019.1,000.0,027.4,020.5,3.8,0000.0,0004.06,0003.11,0002.79
2024-01-13 12:15:00,SystemResetWarning,0821.1,4.99,000.00,019.1,018.7,000.0,027.4,020.1,3.8,0000.0,0004.21,0003.15,0002.81
2024-01-13 12:16:00,SystemResetWarning,0821.0,5.01,000.00,019.0,018.3,000.0,027.4,020.0,3.8,0000.0,0004.23,0003.15,0002.82
2024-01-13 12:17:00,SystemResetWarning,0821.1,5.00,000.00,019.0,018.1,000.0,027.4,020.0,3.9,0000.0,0004.16,0003.13,0002.81
2024-01-13 12:18:00,SystemResetWarning,0821.3,4.99,000.00,019.0,017.9,000.0,027.4,020.1,3.9,0000.0,0004.19,0003.12,0002.78
2024-01-13 12:19:00,SystemResetWarning,0821.2,5.00,000.00,019.0,018.2,000.0,027.4,020.5,3.8,0000.0,0004.24,0003.12,0002.77
2024-01-13 12:20:00,SystemResetWarning,0821.1,5.00,000.00,019.1,018.9,000.0,027.4,020.9,3.8,0000.0,0004.21,0003.11,0002.76
2024-01-13 12:21:00,SystemResetWarning,0821.3,5.00,000.00,019.2,019.2,000.0,027.4,020.8,3.8,0000.0,0004.19,0003.11,0002.74
2024-01-13 12:22:00,SystemResetWarning,0821.7,4.99,000.00,019.2,019.0,000.0,027.4,020.2,3.8,0000.0,0004.13,0003.11,0002.74
2024-01-13 12:23:00,SystemResetWarning,0821.9,5.00,000.00,019.0,018.6,000.0,027.4,020.0,3.8,0000.0,0004.09,0003.11,0002.73
2024-01-13 12:24:00,SystemResetWarning,0821.2,5.02,000.00,019.0,018.2,000.0,027.4,020.0,3.7,0000.0,0004.23,0003.13,0002.73
2024-01-13 12:25:00,SystemResetWarning,0821.3,4.99,000.00,019.0,018.0,000.0,027.4,020.0,3.7,0000.0,0004.15,0003.11,0002.71
2024-01-13 12:26:00,SystemResetWarning,0821.3,4.99,000.00,019.0,017.8,000.0,027.4,020.1,3.7,0000.0,0004.05,0003.07,0002.69
2024-01-13 12:27:00,SystemResetWarning,0821.5,5.01,000.00,019.0,018.2,000.0,027.4,020.5,3.7,0000.0,0004.15,0003.09,0002.68
2024-01-13 12:28:00,SystemResetWarning,0822.0,5.02,000.00,019.1,018.8,000.0,027.4,020.9,3.7,0000.0,0004.25,0003.10,0002.67
2024-01-13 12:29:00,SystemResetWarning,0821.6,4.98,000.00,019.2,019.2,000.0,027.4,020.8,3.7,0000.0,0004.21,0003.10,0002.67
2024-01-13 12:30:00,SystemResetWarning,0821.3,5.00,000.00,019.1,018.9,000.0,027.4,020.2,3.7,0000.0,0004.22,0003.10,0002.66
2024-01-13 12:31:00,SystemResetWarning,0821.2,5.00,000.00,019.0,018.5,000.0,027.4,020.0,3.7,0000.0,0004.19,0003.08,0002.65
2024-01-13 12:32:00,SystemResetWarning,0821.2,4.99,000.00,019.0,018.2,000.0,027.4,020.0,3.7,0000.0,0004.13,0003.05,0002.65
2024-01-13 12:33:00,SystemResetWarning,0821.8,5.00,000.00,018.9,017.9,000.0,027.4,020.0,3.7,0000.0,0004.04,0003.01,0002.63
2024-01-13 12:34:00,SystemResetWarning,0822.0,5.02,000.00,019.0,018.0,000.0,027.4,020.3,3.7,0000.0,0004.00,0003.00,0002.61
2024-01-13 12:35:00,SystemResetWarning,0821.4,4.99,000.00,019.1,018.5,000.0,027.4,020.7,3.7,0000.0,0003.88,0002.95,0002.61
2024-01-13 12:36:00,SystemResetWarning,0822.0,5.00,000.00,019.2,019.1,000.0,027.4,020.9,3.7,0000.0,0003.91,0002.96,0002.61
2024-01-13 12:37:00,SystemResetWarning,0822.0,4.99,000.00,019.2,019.0,000.0,027.4,020.4,3.7,0000.0,0004.08,0003.02,0002.60
2024-01-13 12:38:00,SystemResetWarning,0821.2,5.00,000.00,019.1,018.6,000.0,027.4,020.0,3.7,0000.0,0003.97,0002.98,0002.57
2024-01-13 12:39:00,SystemResetWarning,0821.5,5.00,000.00,019.0,018.2,000.0,027.4,020.0,3.7,0000.0,0003.87,0002.97,0002.55
2024-01-13 12:40:00,SystemResetWarning,0821.9,5.00,000.00,019.0,018.0,000.0,027.4,020.1,3.7,0000.0,0003.92,0003.00,0002.56
2024-01-13 12:41:00,SystemResetWarning,0821.9,5.01,000.00,019.1,018.4,000.0,027.4,020.6,3.7,0000.0,0003.90,0003.00,0002.56
2024-01-13 12:42:00,SystemResetWarning,0821.8,5.02,000.00,019.2,019.1,000.0,027.3,020.9,3.6,0000.0,0004.06,0003.03,0002.55
2024-01-13 12:43:00,SystemResetWarning,0822.0,4.99,000.00,019.3,019.3,000.0,027.4,020.8,3.6,0000.0,0004.09,0003.01,0002.52
2024-01-13 12:44:00,SystemResetWarning,0822.0,4.99,000.00,019.2,018.9,000.0,027.4,020.3,3.5,0000.0,0004.20,0003.03,0002.51
2024-01-13 12:45:00,SystemResetWarning,0822.0,5.01,000.00,019.0,018.5,000.0,027.4,020.0,3.5,0000.0,0004.18,0003.02,0002.49
2024-01-13 12:46:00,SystemResetWarning,0821.9,5.01,000.00,019.0,018.2,000.0,027.4,020.0,3.5,0000.0,0004.22,0003.03,0002.49
2024-01-13 12:47:00,SystemResetWarning,0821.8,4.99,000.00,019.0,018.0,000.0,027.4,020.2,3.5,0000.0,0004.19,0003.01,0002.47
2024-01-13 12:48:00,SystemResetWarning,0821.9,5.00,000.00,019.1,018.5,000.0,027.4,020.6,3.5,0000.0,0004.08,0002.96,0002.46
2024-01-13 12:49:00,SystemResetWarning,0821.9,5.00,000.00,019.2,019.1,000.0,027.4,021.0,3.4,0000.0,0004.06,0002.93,0002.46
2024-01-13 12:50:00,SystemResetWarning,0821.8,5.00,000.00,019.3,019.3,000.0,027.4,020.7,3.4,0000.0,0004.16,0002.91,0002.44
2024-01-13 12:51:00,SystemResetWarning,0821.6,4.99,000.00,019.2,018.9,000.0,027.4,020.2,3.4,0000.0,0004.31,0002.88,0002.42
2024-01-13 12:52:00,SystemResetWarning,0822.1,5.00,000.00,019.0,018.5,000.0,027.4,020.0,3.4,0000.0,0004.26,0002.85,0002.39
2024-01-13 12:53:00,SystemResetWarning,0821.7,5.01,000.00,019.0,018.2,000.0,027.4,020.0,3.4,0000.0,0004.09,0002.80,0002.38
2024-01-13 12:54:00,SystemResetWarning,0821.8,5.00,000.00,019.0,018.0,000.0,027.4,020.0,3.4,0000.0,0004.08,0002.80,0002.38
2024-01-13 12:55:00,SystemResetWarning,0821.8,5.01,000.00,019.0,018.2,000.0,027.4,020.4,3.4,0000.0,0003.94,0002.75,0002.34
2024-01-13 12:56:00,SystemResetWarning,0821.7,4.99,000.00,019.1,018.8,000.0,027.4,020.8,3.3,0000.0,0003.94,0002.72,0002.30
2024-01-13 12:57:00,SystemResetWarning,0821.6,5.00,000.00,019.2,019.3,000.0,027.4,020.9,3.3,0000.0,0003.87,0002.67,0002.25
2024-01-13 12:58:00,SystemResetWarning,0821.7,4.99,000.00,019.2,019.1,000.0,027.4,020.3,3.3,0000.0,0003.81,0002.61,0002.20
2024-01-13 12:59:00,SystemResetWarning,0821.8,5.00,000.00,019.1,018.7,000.0,027.4,020.0,3.3,0000.0,0003.77,0002.57,0002.16
